Regional Weather Roundup
Issued by NWS

Home | Current Version | Previous Version | Text Only | Print | Product List | Glossary On
Versions: 1 2 3 4 5 6 7 8 9 10 11 12 13 14 15 16 17 18 19 20 21 22 23 24 25 26 27 28 29 30 31 32 33 34 35 36 37 38 39 40 41 42 43 44 45 46 47 48 49 50
000
ASUS46 KSEW 250510
RWRWA

WASHINGTON REGIONAL WEATHER ROUNDUP
NATIONAL WEATHER SERVICE SEATTLE WA
1000 PM PDT TUE APR 24 2018

NOTE:"FAIR" INDICATES FEW OR NO CLOUDS BELOW 12,000 FEET WITH NO
SIGNIFICANT WEATHER AND/OR OBSTRUCTIONS TO VISIBILITY.

WAZ507-509-555>559-250600-
SEATTLE, TACOMA, EVERETT, AND VICINITY

CITY           SKY/WX    TMP DP  RH WIND       PRES   REMARKS
EVERETT        PTCLDY    55  42  61 NW7       30.09R
BOEING FIELD   MOCLDY    61  32  33 CALM      30.06R
RENTON         PTCLDY    62  43  49 NW13      30.06R
SEATAC AIRPORT MOCLDY    60  40  47 N12       30.06R
JBLM-MCCHORD   PTCLDY    57  43  60 CALM      30.06R
PUYALLUP       FAIR      55  43  62 CALM      30.06R
BREMERTON      MOCLDY    62  31  31 NE10      30.06R
JBLM-FT LEWIS  PTCLDY    64  41  42 VRB5      30.04
TACOMA NARROWS PTCLDY    60  37  42 N16       30.06R
$$

WAZ001-503-506-510-514-515-250600-
NORTH INTERIOR

CITY           SKY/WX    TMP DP  RH WIND       PRES   REMARKS
BELLINGHAM     PTCLDY    51  46  83 CALM      30.08S
FRIDAY HARBOR  PTCLDY    52  33  48 CALM      30.09S
EASTSOUND      PTCLDY    52  39  62 CALM      30.08S
PORT ANGELES   PTCLDY    51  38  60 CALM      30.11R
EDIZ HOOK      FAIR      55  40  59 S6        30.10R
PORT TOWNSEND  FAIR      57  36  44 NW7       30.09R
NAS WHIDBEY    MOCLDY    52  45  77 CALM      30.12R
ARLINGTON      PTCLDY    55  38  52 CALM      30.08R
BURLINGTON     CLEAR     55  43  62 NW8       30.08R
$$

WAZ020-022-039-040-504-511-512-250600-
SOUTHWEST INTERIOR

CITY           SKY/WX    TMP DP  RH WIND       PRES   REMARKS
SHELTON        PTCLDY    55  42  61 CALM      30.04R
OLYMPIA        PTCLDY    61  34  36 NE9       30.05R
CHEHALIS         N/A     59  43  55 N7        30.02S
KELSO          MOCLDY    61  44  53 CALM      30.01R
VANCOUVER      PTCLDY    59  44  57 CALM      29.98R
SCAPPOOSE, OR  MOCLDY    59  42  53 W5        29.99R
PORTLAND, OR   MOCLDY    68  37  32 CALM      29.98R
$$

WAZ021-516-517-250600-
WASHINGTON COAST

CITY           SKY/WX    TMP DP  RH WIND       PRES   REMARKS
FORKS          PTCLDY    58  38  47 N10       30.06R
HOQUIAM        MOCLDY    64  40  41 CALM      30.02R
ASTORIA, OR    MOCLDY    59  46  62 CALM      29.99R
$$

WAZ019-023-024-040-567>569-250600-
CASCADE MOUNTAINS AND COLUMBIA GORGE

CITY           SKY/WX    TMP DP  RH WIND       PRES   REMARKS
STAMPEDE PASS  NOT AVBL
TROUTDALE, OR  PTCLDY    68  37  32 E13       29.98R
HOOD RIVER, OR PTCLDY    54  43  66 SW3       30.09R HAZE
THE DALLES, OR PTCLDY    61  40  45 CALM      30.07R
$$

WAZ026-027-041>044-520-521-250600-
EAST SLOPES

CITY           SKY/WX    TMP DP  RH WIND       PRES   REMARKS
OMAK           MOCLDY    55  37  50 NW8       30.13S
WENATCHEE      CLEAR     59  32  36 NW3       30.11F
ELLENSBURG     PTCLDY    56  31  38 CALM      30.13R
YAKIMA         PTCLDY    53  35  50 W8        30.12R
SUNNYSIDE ARPT PTCLDY    54  35  48 NE5       30.10S
YAKIMA TC      NOT AVBL
$$

WAZ028-034-035-250600-
COLUMBIA BASIN

CITY           SKY/WX    TMP DP  RH WIND       PRES   REMARKS
EPHRATA        CLEAR     58  33  39 NW7       30.11S
MOSES LAKE     CLEAR     57  32  38 NW3       30.12S
PASCO          CLEAR     50  43  77 NW7       30.09S
RICHLAND ARPT  CLEAR     59  40  49 CALM      30.10R
HERMISTON, OR  CLEAR     54  43  66 SE6       30.07S
$$

WAZ036>038-250600-
NORTHEAST WASHINGTON

CITY           SKY/WX    TMP DP  RH WIND       PRES   REMARKS
SPOKANE GEIGER PTCLDY    54  36  50 SW5       30.15S
SPOKANE FELTS  CLEAR     52  33  48 N5        30.15S
FAIRCHILD AFB  NOT AVBL
COEURDALENE,ID CLEAR     50  36  58 E3        30.16R
DEER PARK      CLEAR     42  33  70 NE3       30.15S
$$

WAZ029>033-250600-
SOUTHEAST WASHINGTON

CITY           SKY/WX    TMP DP  RH WIND       PRES   REMARKS
PULLMAN        CLEAR     52  35  52 CALM      30.16S
LEWISTON, ID   CLEAR     60  39  45 SW8       30.12R
WALLA WALLA    PTCLDY    60  40  47 SE6       30.09S
PENDLETON, OR  CLEAR     54  42  64 SE7       30.09R
$$



USA.gov is the U.S. government's official web portal to all federal, state and local government web resources and services.